CZ-6A DEB

Satellite information

Favourite Embed

Satellite Type and Status

DEBRISIN ORBIT

Key statistics

Satellite CZ-6A DEB at a glance.

Uptime

495

Days in orbit

Revolutions

≈ 14.1

Per day

Orbit

LEO

Low Earth Orbit

Inclination

89.0

Latest

Satellite identification and parameters

Extended collection of information and parameters for CZ-6A DEB.

Object identification

Identified? True

Debris? True

Object name: CZ-6A DEB

International designator: 2024-140QC

Object number (NORAD): 61134

Object ID (CCSDS): 61134

Country: PEOPLES REPUBLIC OF CHINA (PRC)

Current information (Y/N): Y

RCS size: SMALL

Orbital parameters

Period: 102.153 minutes

Inclination: 88.9837 deg

SMA: 7238.713 km

Apoapsis: 944.909 km

Periapsis: 776.246 km

RAAN: 295.9788 deg

Eccentricy: 0.01165007

Argument of periapsis: 124.0982 deg

Mean anomaly: 237.1323 deg

Mean motion: 14.09648217 rev/day

Mean motion (dot): 0.00005523 rev/day2

B* drag term: 0.0029519429 1/REarth

Two-line elements (TLE)

Creation date: Dec. 14, 2025, 3:07 a.m.

Reference frame: TEME

Reference center: EARTH

Epoch: Dec. 13, 2025, 9:06 a.m. UTC

TLE line 0: 0 CZ-6A DEB

TLE line 1: 1 61134U 24140QC 25347.37949025 .00005523 00000-0 29519-2 0 9999

TLE line 2: 2 61134 88.9837 295.9788 0116501 124.0982 237.1323 14.09648217 67240

Live tracking on map

Real-time ground track for satellite CZ-6A DEB.

In-orbit conjunctions

A list of the most updated potential collisions computed for object CZ-6A DEB.

Target Orbit TCA Probability of collision Miss distance Type
FENGYUN 1C DEB SSO 2025-07-25 15:21:22 0.0001146752 295.0 (m) DEBRIS
ARIANE 1 DEB SSO 2025-04-22 20:05:52 0.0001685196 202.0 (m) DEBRIS
NOAA 16 DEB SSO 2025-01-14 13:01:30 0.0001012715 217.0 (m) DEBRIS
FENGYUN 1C DEB SSO 2025-01-07 08:41:18 0.000533958 183.0 (m) DEBRIS
COSMOS 1867 COOLANT LEO 2025-01-03 02:13:25 0.0001144363 289.0 (m) DEBRIS

Associated space launch

18 Low Earth Orbit communication satellites with Ku, Q and V band payloads for the G60 constellation operated by Shanghai Spacecom Satellite Technology (SSST) with funding backed by the Shanghai local government. Initial constellation will consist of 1296 satellites by 2027 with long term plans to expand it to 12000 satellites.

CZ-6A DEB was lifted into orbit during the mission ‘Long March 6A | G60 Polar Group 01’, on board a Long March 6A space rocket.

The launch took place on Aug. 6, 2024, 6:42 a.m. from Launch Complex 9A.

For more information about the launch, click the button.

Launch to space Long March 6A | G60 Polar Group 01
Long March 6A | G60 Polar Group 01

Agency: N/A

Status: Launch Successful

Launch date: Aug. 6, 2024, 6:42 a.m. UTC

Rocket: Long March 6A

Launch pad: Launch Complex 9A

Location: Taiyuan Satellite Launch Center, People's Republic of China

...

Latest news about this satellite

News about space launch
Brightness of first Chinese broadband constellation satellites alarms astronomers

The first satellites of a Chinese broadband constellation are significantly brighter than those of Western systems, posing a new challenge for astronomers.

News about space launch
Chinese rocket stage breaks up into cloud of more than 700 pieces of space debris

HELSINKI — A Chinese Long March 6A rocket’s upper stage has fragmented into a cloud of over 700 pieces of space debris, adding to concerns about long-term orbital safety. China […]

News about space launch
China's Thousand Sails Megaconstellation Kicks Off with Dangerous Debris Field

China's Thousand Sails Megaconstellation Kicks Off with Dangerous Debris Field


Newsletter sign-up

Weekly statistics, charts and insights to help you stay on top of the space industry.